NOAA 16 DEB, 41154

Orbit data source: Space-Track

NOAA 16 DEB, 41154 is space debris in SSO originally from a launch on Thu, 21 Sep 2000 UTC launched from the Air Force Western Test Range (AFWTR). Debris objects in space refer to the collection of defunct objects orbiting the Earth. Examples of debris include non-operational satellites, rocket bodies, and fragments generated from explosions, collisions, or faulty payload assembly.

Loading next visibility...
Identifier
41154, 2000-055CM
Orbit
SSO
Country
Flag of USUS
Related business
Manufacturer
Unknown
Mission
Spacecraft
Bus & Motor
Unknown
Mass
Unknown
Launch date (UTC)
2000-09-21 (26 years ago)
Launch vehicle
Unknown
Launch site
Air Force Western Test Range (AFWTR)
Object type
Payload
Rocket body
Debris
Shape & HBR
Unknown shape, 0.1 m
Radar Cross Section
Medium (>0.1 m² and <1 m²)

Expand to show TLE details & history
Last TLE update: 4 days ago

TLE from 4 days ago
0 NOAA 16 DEB
1 41154U 00055CM  26169.85321744  .00001895  00000-0  10422-2 0  9997
2 41154  98.7590 190.8278 0053540 334.9595  24.8982 14.12135633539835
Epoch: 2026-06-18T20:28Z
TLE epoch observation values (Epoch: 2026-06-18T20:28:37.986Z)
Latitude
-0.00001°
Longitude
-23.42106°
Altitude
819.892 km
Speed
7.461 km/s
True Right ascension
12h 43m 18s
True Declination
0° 00' 00"
Sunlit
Object was in daylight at epoch
Visualization orbit readout
Latitude
Unknown
Longitude
Unknown
Altitude
Unknown
Speed
Unknown
Apparent Right ascension
Unknown
Apparent Declination
Unknown
Sunlit
N/A
Visualization observer readout
Local Sidereal Time
21:49:48
Azimuth
Unknown
Elevation
Unknown
Doppler factor
Unknown
Orbital elements
Apogee altitude
887.94 km
Perigee altitude
810.549 km
Semi-major axis
7,227.381 km
Eccentricity
0.00535
Inclination
98.759°
RAAN
190.8278°
Arg. of periapsis
334.9595°
True anomaly
25.15807°
Mean anomaly
24.8982°
Eccentric anomaly
25.02798°
Mean motion
3.53242 °/min
Orbital period
101.91 mins
BSTAR
0.0010422
Loading maneuver chart data...
Computing Atmospheric mass density...
Loading historical data...
Loading historical data...
Loading historical data...
Loading historical data...
Loading historical data...
Loading historical data...
Loading historical data...

Documentation

Showing up to 5 results
|